Regional Weather Roundup
Issued by NWS

Home | Current Version | Previous Version | Text Only | Print | Product List | Glossary On
Versions: 1 2 3 4 5 6 7 8 9 10 11 12 13 14 15 16 17 18 19 20 21 22 23 24 25 26 27 28 29 30 31 32 33 34 35 36 37 38 39 40 41 42 43 44 45 46 47 48 49 50
000
ASUS43 KBIS 210310
RWRND

NORTH DAKOTA REGIONAL WEATHER ROUNDUP
NATIONAL WEATHER SERVICE BISMARCK ND
900 PM CST TUE FEB 20 2018

NOTE: "FAIR" INDICATES FEW OR NO CLOUDS BELOW 12,000 FEET WITH NO
SIGNIFICANT WEATHER AND/OR OBSTRUCTIONS TO VISIBILITY.


NDZ001>003-009>011-017-210400-
NORTHWEST NORTH DAKOTA

CITY           SKY/WX    TMP DP  RH WIND       PRES   REMARKS
WILLISTON      CLEAR     -1  -9  68 SW9       30.18R WCI -16
MINOT          PTCLDY     4  -5  66 SW21      30.12S WCI -17
MINOT AFB      PTCLDY     2  -6  68 W20G25    30.11R WCI -19
$$

NDZ018>021-031>035-040>046-210400-
SOUTHWEST NORTH DAKOTA

CITY           SKY/WX    TMP DP  RH WIND       PRES   REMARKS
BISMARCK       CLEAR      2  -6  69 SW6       30.25R WCI  -9
DICKINSON      CLEAR     -6 -13  71 W12       30.15R WCI -25
GARRISON         N/A     -3  -9  75 W12       30.17R WCI -21
HETTINGER ARPT CLEAR    -12 -17  78 W8        30.20R WCI -29
$$

NDZ004>008-012>016-024-026-027-054-210400-
NORTHEAST NORTH DAKOTA

CITY           SKY/WX    TMP DP  RH WIND       PRES   REMARKS
GRAND FORKS    FAIR       2  -4  76 SW10      30.21R WCI -14
GRND FRKS AFB  CLEAR      1  -6  71 W9        30.20R WCI -14
DEVILS LAKE    FAIR       1  -5  75 SW13      30.16R WCI -17
$$

NDZ022-023-025-028>030-036>039-047>053-210400-
SOUTHEAST NORTH DAKOTA

CITY           SKY/WX    TMP DP  RH WIND       PRES   REMARKS
FARGO          FAIR       5  -2  72 W13       30.26R WCI -12
JAMESTOWN      CLEAR      2  -4  76 SW9       30.21R WCI -13
$$





USA.gov is the U.S. government's official web portal to all federal, state and local government web resources and services.